Tutup Klik Disini

Agen Sbobet

Tutup Klik Disini

Jackpot

Texas Poker Multi Jackpot System

Kini Telah hadir Jackpot SUPER ROYAL FLUSH

Kini Telah hadir Jackpot 2000 (khusus table VIP keatas).

Ikutilah global jackpot yang tersedia di system kami, dengan system jackpot terbaru dan pertama di indonesia, anda dapat membeli jackpot dengan harga 100 rupiah saja dan menangkan hadiahnya hingga puluhan juta rupiah.

Jackpot bukanlah suatu keharusan untuk dibeli, namun kami memberikan suatu fitur tambahan untuk member tercinta dari www.judiceme.poker.

Terdapat tiga pilihan harga jackpot yang bisa anda beli yaitu :100,500,1000 dan 2000(khusus table VIP Keatas) rupiah.

Hadiah dari Multi jackpot system www.judiceme.poker

  1. full house x 10 harga jackpot yang anda beli.
      (contoh:anda membeli 1000 maka:1000 X10 = 10.000)
  2. four of kind x 250 harga jackpot yang anda beli
      (contoh:anda membeli 1000 maka:1000 X250 = 250.000)
  3. Straight flush x 1200
      (contoh:anda membeli 1000 maka:1000 X1200 = 1.200.000)
  4. Royal flush x 10000 harga jackpot yang anda beli
      (contoh:anda membeli 1000 maka:1000 X10000 = 10.000.000)
  5. SUPER ROYAL FLUSH x 30000 harga jackpot yang anda beli
      (contoh:anda membeli 1000 maka:1000 X30000 = 30.000.000)

Kondisi kartu

  1. full house adalah kondisi kartu dimana kartu anda dan kartu tengah dengan total 7 kartu bisa mendapatkan nilai 5 kartu dengan kombinasi 1 tris(three of kind) dan 1 pair, contoh 3 kartu 10 dan 2 kartu 5
  2. Four of kind adalah kondisi kartu dimana kartu anda dan kartu tengah dengan total 7 kartu bisa mendapatkan nilai 5 kartu dengan kombinasi 4 kartu yang sama jumlah dan 1 kartu apapun juga contoh anda mendapatkan 4 buah kartu angka 3 dan 1 kartu apapun.
  3. Staright flush adalah kondisi kartu dimana kartu anda dan kartu tengah dengan total 7 kartu bisa mendapatkan nilai 5 kartu dengan kombinasi seri / staright dengan kembang yang sama contoh : urutan kartu dari angka 5, 6, 7, 8 , 9 10 dengan kembang yg sama misalnya as hati
  4. Royal flush adalah kondisi kartu dimana kartu anda dan kartu tengah dengan total 7 kartu bisa mendapatkan nilai 5 kartu dengan kombinasi seri / staright dengan kembang yang sama tetapi kartu tersebut haruslah dimulai dari 10. contoh 10, Queen, Jack, King dan aces dengan kembang yang sama
  5. Super Royal flush adalah kondisi kartu dimana Kedua kartu anda digabung dengan 3 kartu pertama meja haruslah royal flush. contoh kartu anda 10,Queen kembang sama dan 3 kartu pertama meja adalah Jack, King dan aces dengan kembang yang sama

Demikian adalah penjelasan dari Multi Jackpot www.judiceme.poker terima kasih dan selamat bermain salam hoki dari kami

Texas Poker Jackpot Winner

TOP SUPER ROYAL FLUSH
No.TanggalNamaPriceWin
123/07 02:27TOENK06Super Royal flush15,000,000
222/07 22:22R3FILSuper Royal flush60,000,000
322/07 21:12WIL9Super Royal flush15,000,000
422/07 16:35T4D0015761Super Royal flush6,000,000
522/07 13:28CASKIN7SSuper Royal flush3,000,000
TOP ROYAL FLUSH
No.TanggalNamaPriceWin
123/07 10:48POLOTOSRoyal flush2,000,000
223/07 10:40YUKAKUYKUYRoyal flush10,000,000
323/07 10:33FERNIPAN11Royal flush5,000,000
423/07 10:29MUNTIL007Royal flush5,000,000
523/07 10:08MADUN7890Royal flush5,000,000
TOP STRAIGHT FLUSH
No.TanggalNamaPriceWin
123/07 10:59TELATELOStraight Flush240,000
223/07 10:58A54CFB5CStraight Flush1,200,000
323/07 10:49AKAL57Straight Flush600,000
423/07 10:45COLENAK19Straight Flush600,000
523/07 10:43DONIWIJAYStraight Flush1,200,000
LATEST JACKPOT
No.TanggalNamaPriceWin
123/07 10:59TAKANA10Full House10,000
223/07 10:59SEP75Full House5,000
323/07 10:59IND4H0903Full House1,000
423/07 10:59LUMFull House10,000
523/07 10:59AFF188F0Full House5,000
623/07 10:59EL1989Full House2,000
723/07 10:59TINOEK051Full House2,000
823/07 10:59ZIHAN_69Full House5,000
923/07 10:59TEMPIK01Full House2,000
1023/07 10:59JM82XJO3DXFull House5,000
1123/07 10:59AMAGELL7Full House1,000
1223/07 10:59POLOTOSFull House2,000
1323/07 10:59DODIROSADIFull House10,000
1423/07 10:59LUTFIDVFour Of A Kind125,000
1523/07 10:59NCINK16Full House5,000
1623/07 10:59BURU5UT89Full House1,000
1723/07 10:59VZB5OZAPRBFull House2,000
1823/07 10:59SYARINI44Full House2,000
1923/07 10:59KELOR212Full House10,000
2023/07 10:59LSARMADAFull House2,000
2123/07 10:59BECAK8888Full House5,000
2223/07 10:59TELATELOStraight Flush240,000
2323/07 10:59MAR3333Four Of A Kind25,000
2423/07 10:59DAKRUN25Full House10,000
2523/07 10:59DCF44B26Full House2,000
2623/07 10:59FOREVER44Full House2,000
2723/07 10:59BANDREXXXXFull House5,000
2823/07 10:59B4R4T22Full House5,000
2923/07 10:59TWANGALAFull House5,000
3023/07 10:58P3RSINGFull House1,000
3123/07 10:58SUFU99Full House10,000
3223/07 10:58C06B5D13Full House5,000
3323/07 10:58STRONG751Full House5,000
3423/07 10:58KOMO_10Full House2,000
3523/07 10:58GDS1Full House2,000
3623/07 10:58S41FFull House5,000
3723/07 10:58Z83HH68WWMFull House1,000
3823/07 10:58ARAHKU1234Full House5,000
3923/07 10:58BAJING4N4Full House1,000
4023/07 10:58SENGZU13Four Of A Kind50,000
4123/07 10:58IMAX5Full House5,000
4223/07 10:58LUCKY1100Full House2,000
4323/07 10:58BERIBOOLFull House2,000
4423/07 10:58GILLINGGAMFull House2,000
4523/07 10:58TYOMOE22Full House10,000
4623/07 10:58MADA1Four Of A Kind250,000
4723/07 10:58J4B4LFull House5,000
4823/07 10:58A54CFB5CStraight Flush1,200,000
4923/07 10:58BAMBAM80Full House5,000
5023/07 10:58RIZA23Full House10,000

Domino Multi Jackpot System

Ikutilah global jackpot yang tersedia di system kami, dengan system jackpot terbaru dan pertama di indonesia, anda dapat membeli jackpot dengan harga 100 rupiah saja dan menangkan hadiahnya hingga puluhan juta rupiah.

Jackpot bukanlah suatu keharusan untuk dibeli, namun kami memberikan suatu fitur tambahan untuk member tercinta dari www.judiceme.poker.

Terdapat tiga pilihan harga jackpot yang bisa anda beli yaitu :100,500 dan 1000 rupiah.

Hadiah dari Multi jackpot system www.judiceme.poker

  1. Murni Kecil x 50 harga jackpot yang anda beli.
      (contoh:anda membeli 1000 maka:1000 X 50 = 50.000)
  2. Murni Besar x 50 harga jackpot yang anda beli
      (contoh:anda membeli 1000 maka:1000 X 50 = 50.000)
  3. BALAK x 100 harga jackpot yang anda beli
      (contoh:anda membeli 1000 maka:1000 X 100 = 100.000)
  4. ENAM DEWA x 6666 harga jackpot yang anda beli
      (contoh:anda membeli 1000 maka:1000 X 6666 = 6.666.000)

Demikian adalah penjelasan dari Multi Jackpot www.judiceme.poker terima kasih dan selamat bermain salam hoki dari kami

Domino Jackpot Winner

TOP ENAM DEWA
No.TanggalNamaPriceWin
123/07 10:21KACER9999murni enam3,333,000
223/07 08:50SRTLDURAMPAKmurni enam6,666,000
323/07 08:12ABBACELLmurni enam6,666,000
423/07 06:59KUDANIL35murni enam6,666,000
523/07 06:14GOKIL1998murni enam666,600
TOP BALAK
No.TanggalNamaPriceWin
123/07 10:56DM82997balak50,000
223/07 10:56MAYITDADI9balak100,000
323/07 10:54ADHE8383balak100,000
423/07 10:44DOMEK90balak100,000
523/07 10:42TULUN9ANbalak50,000
LATEST JACKPOT
No.TanggalNamaPriceWin
123/07 10:59AE1922SHmurni besar50,000
223/07 10:59FZRWK_BOMmurni kecil5,000
323/07 10:58KUR1HUYmurni kecil25,000
423/07 10:57DOTRES01murni besar50,000
523/07 10:56DM82997balak50,000
623/07 10:56KOWEL101lucky9925,000
723/07 10:56MAYITDADI9balak100,000
823/07 10:55LSZKRAMQEFmurni kecil50,000
923/07 10:55ENTONG_IWmurni kecil50,000
1023/07 10:54J33XP88Tmurni kecil50,000
1123/07 10:54ADHE8383balak100,000
1223/07 10:53LOYZ30murni besar5,000
1323/07 10:53KUSESER12murni besar50,000
1423/07 10:53ADI8900murni besar5,000
1523/07 10:53B0Y12345murni kecil50,000
1623/07 10:53MESINJUMBOmurni kecil50,000
1723/07 10:49HERI77ANDAmurni besar50,000
1823/07 10:49RAWONCOYmurni besar50,000
1923/07 10:48LSZKRAMQEFmurni kecil50,000
2023/07 10:48BOYADODOmurni besar50,000
2123/07 10:45GOKIL1998murni kecil25,000
2223/07 10:45IRFAN111lucky9910,000
2323/07 10:44RUPEN55murni besar5,000
2423/07 10:44DOMEK90balak100,000
2523/07 10:44AMSAH2606murni kecil25,000
2623/07 10:43TAKBOR02murni besar5,000
2723/07 10:43NYIRANDAWDlucky9910,000
2823/07 10:42TULUN9ANbalak50,000
2923/07 10:42MIH0Rmurni besar50,000
3023/07 10:42IGU15murni kecil50,000
3123/07 10:42CARSAD09murni kecil50,000
3223/07 10:42C4RR0Tmurni kecil50,000
3323/07 10:41MB0EDbalak100,000
3423/07 10:41RUPEN55murni besar5,000
3523/07 10:41SRIKANDI84murni besar50,000
3623/07 10:40FZRWK_BOMmurni besar5,000
3723/07 10:40MACCO123murni kecil25,000
3823/07 10:40ARDI2078lucky9910,000
3923/07 10:37REYmurni besar5,000
4023/07 10:35EMANEKOKmurni besar50,000
4123/07 10:34LCBOC41JTPmurni besar5,000
4223/07 10:34DODIT45murni besar25,000
4323/07 10:34RAYON999murni besar25,000
4423/07 10:34MONKEYYY10murni besar25,000
4523/07 10:33SYAH98murni kecil50,000
4623/07 10:33RXKING204balak100,000
4723/07 10:33RATTIH99murni besar25,000
4823/07 10:32TEREN99murni besar25,000
4923/07 10:32LANDUR75murni besar50,000
5023/07 10:31UN3RIWDFJ2murni kecil5,000

Ceme Multi Jackpot System

Jackpot dilihat dari gabungan kartu pemain dengan kartu bandar. Bandar harus membeli jackpot sebanyak jumlah player yang sedang duduk. Sebagai contoh bila terdapat 3 pemain duduk bermain, dan bandar memutuskan untuk membeli jackpot Rp 1.000, maka pada periode tersebut bandar akan membeli jackpot sebanyak 3xRp1.000 = Rp3.000.

Jackpot bukanlah suatu keharusan untuk dibeli, namun kami memberikan suatu fitur tambahan untuk member tercinta dari www.judiceme.poker.

Terdapat tiga pilihan harga jackpot yang bisa anda beli yaitu :100,500 dan 1000 rupiah.

Hadiah dari Multi jackpot system www.judiceme.poker

  1. Murni Kecil x 50 harga jackpot yang anda beli.
      (contoh:anda membeli 1000 maka:1000 X 50 = 50.000)
  2. Murni Besar x 50 harga jackpot yang anda beli
      (contoh:anda membeli 1000 maka:1000 X 50 = 50.000)
  3. BALAK x 200 harga jackpot yang anda beli
      (contoh:anda membeli 1000 maka:1000 X 200 = 200.000)
  4. ENAM DEWA x 6666 harga jackpot yang anda beli
      (contoh:anda membeli 1000 maka:1000 X 6666 = 6.666.000)

Demikian adalah penjelasan dari Multi Jackpot www.judiceme.poker terima kasih dan selamat bermain salam hoki dari kami

Ceme Jackpot Winner

TOP ENAM DEWA
No.TanggalNamaPriceWin
123/07 10:45CLOVERERmurni enam6,666,000
223/07 10:45TATAI___murni enam6,666,000
323/07 10:34BFA4CD03murni enam3,333,000
423/07 10:29DONIFSmurni enam6,666,000
523/07 10:29HADI1928murni enam666,600
TOP BALAK
No.TanggalNamaPriceWin
123/07 10:59YESSI16balak200,000
223/07 10:59RONALDObalak20,000
323/07 10:59BXG44G11BDbalak200,000
423/07 10:59SETANE82balak200,000
523/07 10:58MAXI971balak200,000
LATEST JACKPOT
No.TanggalNamaPriceWin
123/07 10:59BUNTING909murni besar50,000
223/07 10:59WAYPOTmurni besar50,000
323/07 10:59MATRONI9murni kecil50,000
423/07 10:59GENDIS977murni kecil50,000
523/07 10:59DEDIPAZERmurni kecil25,000
623/07 10:59GENDIS977murni kecil50,000
723/07 10:59YESSI16balak200,000
823/07 10:59RONALDObalak20,000
923/07 10:59HUNG_Amurni kecil50,000
1023/07 10:59BXG44G11BDbalak200,000
1123/07 10:59SETANE82balak200,000
1223/07 10:58JOCKY09murni kecil50,000
1323/07 10:58MAXI971balak200,000
1423/07 10:58JPK899balak20,000
1523/07 10:58IMS326murni kecil25,000
1623/07 10:58ATP62murni kecil5,000
1723/07 10:58ARUL168balak20,000
1823/07 10:58QINPOT333murni kecil5,000
1923/07 10:58BUYUANG55murni besar50,000
2023/07 10:58NCEK_99murni besar50,000
2123/07 10:58LODAY347murni besar50,000
2223/07 10:58WEDUS4567balak200,000
2323/07 10:58ZAGUAR89murni besar50,000
2423/07 10:58PRISKI14murni kecil50,000
2523/07 10:58SLM_STY338murni kecil50,000
2623/07 10:58JUNAI12murni kecil50,000
2723/07 10:58ANDRIK815murni kecil5,000
2823/07 10:58SOME55murni kecil25,000
2923/07 10:57YADAWA19murni kecil50,000
3023/07 10:57WAWHA88balak100,000
3123/07 10:57YESSI16balak200,000
3223/07 10:57AURORA112murni besar5,000
3323/07 10:57BFA4CD03balak100,000
3423/07 10:57SKYN3T83balak200,000
3523/07 10:57JUDAJD7K5Hbalak100,000
3623/07 10:57KALIM123balak20,000
3723/07 10:57KONTL21murni besar5,000
3823/07 10:57U3X9BSXNY6murni besar50,000
3923/07 10:57COMME1balak200,000
4023/07 10:57VEERISbalak200,000
4123/07 10:57PUNEL88murni besar50,000
4223/07 10:56S61IUCTL65balak100,000
4323/07 10:56PEJUANG7murni kecil50,000
4423/07 10:56LODAY347murni besar50,000
4523/07 10:56NAEYRA8055murni besar5,000
4623/07 10:56ADHE_07murni kecil5,000
4723/07 10:56WARYOGI578balak100,000
4823/07 10:56LUCKY495murni kecil50,000
4923/07 10:56N5TQSPECQOmurni kecil25,000
5023/07 10:56RIFAL338murni kecil25,000